Owosso, MI

4:37 PM EDT on May 24, 2017 (GMT -0400)
Owosso

Weather History for KRNP - October, 2013

Change the Weather History Date:

Saturday, October 19, 2013

  Actual Average (KFNT) Record (KFNT)
Temperature  
Mean Temperature 48 °F -  
Max Temperature 54 °F 54 °F 80 °F (1950)
Min Temperature 41 °F 37 °F 20 °F (1972)
Degree Days  
Heating Degree Days 18    
Moisture  
Dew Point 40 °F    
Average Humidity 81    
Maximum Humidity 95    
Minimum Humidity 46    
Precipitation  
Precipitation 0.00 in - - ()
Sea Level Pressure  
Sea Level Pressure 29.79 in    
Wind  
Wind Speed 7 mph (SW)    
Max Wind Speed 15 mph    
Max Gust Speed 23 mph    
Visibility 9 miles    
Events Rain    
Averages and records for this station are not official NWS values.
T = Trace of Precipitation, MM = Missing Value Source: NWS Daily Summary

Daily Weather History Graph

Daily Weather History Graph

Search for Another Location

Airport or City:

Trip Planner

Search our weather history database for the weather conditions in past years. The results will help you decide how hot, cold, wet, or windy it might be!

Date:

Astronomy

Oct. 19, 2013 Rise Set
Actual Time 7:55 AM EDT 6:47 PM EDT
Civil Twilight 7:26 AM EDT 7:15 PM EDT
Nautical Twilight 6:53 AM EDT 7:48 PM EDT
Astronomical Twilight 6:20 AM EDT 8:21 PM EDT
Moon 7:12 PM EDT (10/19) 8:33 AM EDT (10/19)
Length of Visible Light 11h 49m
Length of Day
10h 51m
Waxing Gibbous, 99% of the Moon is Illuminated
Oct 19
Waxing Gibbous
Oct 26
Last Quarter
Nov 3
New
Nov 10
First Quarter
Nov 17
Full

Hourly Weather History & Observations

Time (EDT) Temp. Windchill Dew Point Humidity Pressure Visibility Wind Dir Wind Speed Gust Speed Precip Events Conditions
12:15 AM 46.9 °F - 43.3 °F 87% 29.87 in 10.0 mi SSW 6.9 mph - N/A   Scattered Clouds
12:34 AM 46.9 °F - 43.0 °F 86% 29.87 in 10.0 mi SSW 5.8 mph - N/A   Mostly Cloudy
12:55 AM 46.9 °F - 43.0 °F 86% 29.87 in 10.0 mi SW 8.1 mph - N/A   Mostly Cloudy
1:15 AM 46.6 °F - 42.8 °F 87% 29.86 in 10.0 mi SSW 6.9 mph - N/A   Scattered Clouds
1:34 AM 46.6 °F - 42.8 °F 87% 29.86 in 10.0 mi SSW 8.1 mph - N/A   Clear
1:55 AM 46.4 °F 43.5 °F 42.4 °F 86% 29.85 in 10.0 mi SW 5.8 mph - N/A   Clear
2:14 AM 46.4 °F 43.5 °F 42.4 °F 86% 29.85 in 10.0 mi SW 5.8 mph - N/A   Clear
2:35 AM 46.6 °F - 42.4 °F 85% 29.85 in 10.0 mi SW 5.8 mph - N/A   Mostly Cloudy
2:55 AM 46.6 °F - 42.4 °F 85% 29.84 in 10.0 mi SW 5.8 mph - N/A   Overcast
3:14 AM 46.4 °F 44.3 °F 42.4 °F 86% 29.84 in 10.0 mi SW 4.6 mph - N/A   Overcast
3:35 AM 46.4 °F 44.3 °F 42.8 °F 87% 29.84 in 10.0 mi SW 4.6 mph - N/A   Overcast
3:55 AM 46.4 °F 43.5 °F 42.8 °F 87% 29.84 in 10.0 mi SSW 5.8 mph - N/A   Overcast
4:15 AM 46.4 °F 44.3 °F 42.8 °F 87% 29.84 in 10.0 mi SSW 4.6 mph - N/A   Mostly Cloudy
4:35 AM 46.2 °F 42.7 °F 42.8 °F 88% 29.84 in 10.0 mi South 6.9 mph - N/A   Overcast
4:55 AM 46.0 °F 42.5 °F 42.8 °F 88% 29.83 in 10.0 mi South 6.9 mph - N/A   Overcast
5:15 AM 46.0 °F 42.5 °F 42.8 °F 88% 29.82 in 10.0 mi South 6.9 mph - N/A   Overcast
5:35 AM 45.7 °F 42.0 °F 42.8 °F 90% 29.81 in 10.0 mi South 6.9 mph - N/A   Drizzle
5:55 AM 45.5 °F 42.5 °F 42.8 °F 90% 29.81 in 10.0 mi SSW 5.8 mph - N/A   Overcast
6:15 AM 45.5 °F 42.5 °F 42.8 °F 90% 29.81 in 10.0 mi SSW 5.8 mph - N/A   Overcast
6:35 AM 45.5 °F 42.5 °F 42.8 °F 90% 29.81 in 10.0 mi South 5.8 mph - N/A   Drizzle
6:55 AM 45.5 °F 42.5 °F 42.8 °F 90% 29.80 in 7.0 mi SSW 5.8 mph - N/A   Drizzle
7:15 AM 45.1 °F 41.4 °F 43.0 °F 92% 29.80 in 7.0 mi South 6.9 mph - N/A   Drizzle
7:35 AM 44.8 °F 39.9 °F 43.0 °F 93% 29.79 in 7.0 mi South 9.2 mph - N/A   Drizzle
7:55 AM 44.8 °F 40.4 °F 43.3 °F 95% 29.80 in 7.0 mi South 8.1 mph - N/A   Drizzle
8:14 AM 44.6 °F 40.7 °F 43.2 °F 95% 29.80 in 7.0 mi SSW 6.9 mph - N/A   Drizzle
8:35 AM 44.6 °F 40.2 °F 43.3 °F 95% 29.80 in 5.0 mi SSW 8.1 mph - N/A   Drizzle
8:55 AM 44.6 °F 41.4 °F 43.3 °F 95% 29.80 in 4.0 mi SSW 5.8 mph - N/A   Unknown
9:54 AM 45.1 °F 40.8 °F 43.9 °F 95% 29.80 in 7.0 mi SSW 8.1 mph - N/A   Light Drizzle
10:15 AM 45.5 °F 41.8 °F 44.2 °F 95% 29.79 in 7.0 mi SSW 6.9 mph - N/A   Overcast
10:32 AM 45.5 °F 41.8 °F 44.1 °F 95% 29.79 in 7.0 mi SW 6.9 mph - N/A   Light Drizzle
10:55 AM 45.7 °F 42.0 °F 44.1 °F 94% 29.78 in 10.0 mi SW 6.9 mph - N/A   Overcast
11:15 AM 46.6 °F - 44.6 °F 93% 29.78 in 10.0 mi WSW 6.9 mph - N/A   Overcast
11:34 AM 47.3 °F - 44.6 °F 90% 29.77 in 10.0 mi WSW 8.1 mph - N/A   Mostly Cloudy
11:55 AM 47.1 °F - 43.0 °F 86% 29.77 in 10.0 mi SW 8.1 mph - N/A   Overcast
12:15 PM 47.7 °F - 43.2 °F 84% 29.77 in 10.0 mi WSW 6.9 mph - N/A   Overcast
12:34 PM 48.0 °F - 42.8 °F 82% 29.76 in 10.0 mi SW 9.2 mph - N/A   Overcast
12:55 PM 48.7 °F - 41.7 °F 77% 29.76 in 10.0 mi West 13.8 mph 18.4 mph N/A   Mostly Cloudy
1:15 PM 49.8 °F - 38.8 °F 66% 29.75 in 10.0 mi West 11.5 mph - N/A   Mostly Cloudy
1:35 PM 51.6 °F - 35.1 °F 53% 29.74 in 10.0 mi West 13.8 mph 19.6 mph N/A   Mostly Cloudy
1:55 PM 51.6 °F - 35.4 °F 54% 29.74 in 10.0 mi West 11.5 mph 16.1 mph N/A   Mostly Cloudy
2:14 PM 52.7 °F - 35.8 °F 53% 29.73 in 10.0 mi WNW 10.4 mph 18.4 mph N/A   Mostly Cloudy
2:35 PM 53.8 °F - 34.7 °F 48% 29.73 in 10.0 mi West 12.7 mph 18.4 mph N/A   Mostly Cloudy
2:55 PM 54.0 °F - 33.6 °F 46% 29.72 in 10.0 mi WSW 11.5 mph 17.3 mph N/A   Scattered Clouds
3:14 PM 54.1 °F - 33.4 °F 46% 29.72 in 10.0 mi WSW 8.1 mph 16.1 mph N/A   Mostly Cloudy
3:35 PM 50.5 °F - 35.4 °F 56% 29.73 in 10.0 mi WSW 11.5 mph 23.0 mph N/A Rain Rain
3:55 PM 49.3 °F - 38.1 °F 65% 29.73 in 10.0 mi SW 9.2 mph - N/A   Overcast
4:14 PM 50.4 °F - 37.6 °F 62% 29.74 in 10.0 mi WSW 11.5 mph - N/A   Mostly Cloudy
4:35 PM 49.3 °F - 37.4 °F 64% 29.74 in 10.0 mi West 13.8 mph 21.9 mph N/A   Overcast
4:54 PM 50.0 °F - 37.4 °F 62% 29.74 in 10.0 mi WNW 10.4 mph - N/A   Mostly Cloudy
5:15 PM 50.2 °F - 37.0 °F 61% 29.74 in 10.0 mi West 6.9 mph - N/A   Mostly Cloudy
5:35 PM 51.3 °F - 36.0 °F 56% 29.74 in 10.0 mi West 10.4 mph - N/A   Scattered Clouds
5:54 PM 49.3 °F - 34.9 °F 58% 29.75 in 10.0 mi SW 6.9 mph - N/A   Scattered Clouds
6:15 PM 49.1 °F - 34.9 °F 58% 29.75 in 10.0 mi SW 4.6 mph - N/A   Scattered Clouds
6:35 PM 48.2 °F - 36.5 °F 64% 29.76 in 10.0 mi NW 10.4 mph 16.1 mph N/A   Scattered Clouds
6:55 PM 45.3 °F 44.0 °F 36.5 °F 71% 29.77 in 10.0 mi WNW 3.5 mph - N/A   Scattered Clouds
7:15 PM 43.5 °F - 36.1 °F 75% 29.77 in 10.0 mi Calm Calm - N/A   Clear
7:35 PM 41.5 °F - 36.5 °F 82% 29.78 in 10.0 mi Calm Calm - N/A   Scattered Clouds
7:55 PM 41.9 °F - 38.5 °F 88% 29.78 in 10.0 mi Calm Calm - N/A   Overcast
8:15 PM 43.0 °F 40.3 °F 40.1 °F 90% 29.79 in 10.0 mi SSW 4.6 mph - N/A   Overcast
8:34 PM 44.6 °F 38.8 °F 39.6 °F 82% 29.80 in 10.0 mi SW 11.5 mph 17.3 mph N/A   Overcast
8:55 PM 44.6 °F 37.8 °F 39.2 °F 81% 29.81 in 7.0 mi West 15.0 mph 23.0 mph N/A   Unknown
9:15 PM 42.8 °F 36.2 °F 39.4 °F 88% 29.82 in 5.0 mi West 12.7 mph 16.1 mph N/A   Unknown
9:34 PM 41.9 °F 37.5 °F 39.2 °F 90% 29.82 in 5.0 mi WSW 6.9 mph - N/A   Overcast
9:55 PM 41.4 °F 39.4 °F 39.2 °F 92% 29.81 in 10.0 mi SSW 3.5 mph - N/A   Overcast
10:15 PM 41.2 °F 37.3 °F 39.2 °F 93% 29.81 in 10.0 mi South 5.8 mph - N/A   Overcast
10:34 PM 41.4 °F 38.4 °F 39.2 °F 92% 29.81 in 10.0 mi SSW 4.6 mph - N/A   Overcast
10:55 PM 41.0 °F 39.0 °F 38.7 °F 91% 29.81 in 10.0 mi SSW 3.5 mph - N/A   Mostly Cloudy
11:15 PM 41.4 °F 39.4 °F 39.0 °F 91% 29.81 in 10.0 mi SSW 3.5 mph - N/A   Overcast
11:34 PM 41.9 °F 38.2 °F 39.2 °F 90% 29.81 in 10.0 mi SSW 5.8 mph - N/A   Overcast
11:55 PM 42.6 °F 37.8 °F 39.2 °F 88% 29.82 in 10.0 mi SSW 8.1 mph - N/A   Overcast